Wetbulb
51.77 51.98 51.84 52.06 52.29 52.65 52.60 52.74 52.87 52.98 52.79 52.73 52.66 52.63 52.65 52.98 53.04 53.17 53.58 53.58 53.60 52.95 52.69 52.64 53.29 53.95 50.78 44.57 43.52 53.29 57.59 60.84 58.62 52.76 49.51 48.50 47.94 45.83 43.95 43.95 43.70 42.99 44.70 44.98 46.50 46.56 47.08
51.16 51.55 51.67 51.98 52.49 52.47 52.48 52.37 52.31 52.99 52.86 52.80 53.15 53.03 52.64 52.56 52.53 52.77 53.17 53.02 53.02 53.06 53.19 52.46 53.10 52.97 47.63 38.07 49.56 53.29 51.80 53.35 52.59 49.89 49.41 48.97 48.07 47.93 45.31 44.51 44.52 46.01 45.05 46.84 47.68 47.49 48.44
51.29 51.07 51.15 51.23 51.30 51.46 51.25 51.53 51.96 52.10 52.64 53.03 53.34 53.39 53.45 52.90 52.92 53.31 53.10 52.71 52.67 52.57 53.06 52.27 52.72 50.65 44.10 40.93 50.61 51.61 51.59 51.24 52.37 50.21 48.84 49.99 49.88 47.45 47.28 44.96 47.25 47.31 44.59 45.37 46.07 46.53 47.91
50.85 51.05 50.83 51.06 51.16 51.61 51.77 51.73 51.62 52.02 52.37 52.80 52.91 53.48 53.17 53.39 53.31 53.21 52.98 52.51 52.30 52.59 52.78 53.03 53.14 49.07 40.30 50.58 53.14 51.50 51.74 50.40 51.82 51.93 50.61 51.47 50.77 48.37 47.36 48.35 45.82 44.50 43.13 40.25 44.39 47.20 47.43
50.51 50.39 50.74 50.56 50.99 50.94 51.20 51.93 52.17 52.07 52.38 52.53 52.73 53.06 52.94 52.78 52.72 52.78 52.79 52.41 52.20 52.21 53.55 53.40 49.25 46.35 39.60 52.39 49.98 52.91 52.07 48.58 49.71 51.41 51.82 52.61 50.39 47.22 46.53 43.63 41.59 40.72 38.30 38.57 41.04 46.19 47.26
50.15 49.89 50.54 50.46 50.42 50.45 50.12 50.58 51.51 52.11 52.52 52.15 52.28 52.75 52.67 52.43 52.38 52.34 52.18 51.90 51.04 51.75 51.43 51.29 49.62 41.30 43.86 40.98 50.22 52.04 52.97 51.56 47.74 49.11 48.32 48.44 46.13 43.44 42.17 41.62 34.88 37.31 37.31 38.28 39.85 44.92 46.44
50.05 50.07 49.99 49.36 49.28 49.70 49.10 50.04 51.49 51.58 51.33 51.56 51.59 51.86 52.49 52.39 52.35 52.05 50.21 45.26 42.72 41.60 42.99 42.26 42.57 41.69 43.90 50.47 53.20 51.95 52.19 50.15 48.58 46.73 42.45 45.17 41.86 38.48 40.75 43.42 41.99 41.02 38.91 38.51 40.65 43.24 42.66
48.91 49.60 49.02 49.04 48.70 49.31 49.59 49.34 49.96 50.64 50.28 50.91 51.25 51.83 52.25 52.23 51.95 51.72 46.84 43.17 42.88 42.36 36.47 42.99 42.70 42.88 46.22 48.62 42.36 47.62 51.84 46.33 44.13 39.76 43.41 41.12 38.69 43.71 43.79 42.96 41.95 40.91 38.93 39.31 41.81 42.50 42.32
48.86 48.56 48.64 49.31 48.79 49.43 48.59 49.43 49.38 49.31 49.64 50.31 50.68 51.16 51.74 51.73 51.71 45.82 43.98 43.69 47.77 46.30 37.31 40.50 43.51 41.97 42.68 45.16 40.97 42.26 48.80 46.43 42.80 40.11 41.23 39.74 41.55 44.47 42.86 41.01 39.61 40.52 39.21 38.87 39.45 41.12 43.21
48.77 48.19 48.82 48.81 47.58 48.65 47.78 47.57 48.68 48.73 48.95 49.93 50.65 51.02 51.24 50.93 44.78 44.18 42.11 47.18 47.82 46.62 33.66 34.28 39.43 42.63 44.58 44.81 39.56 46.44 47.20 46.27 42.89 39.72 41.08 41.06 44.16 41.91 41.29 40.24 41.24 37.22 41.53 41.32 39.39 38.51 35.73
48.62 47.92 48.19 48.39 48.29 47.92 48.01 47.92 48.26 48.14 48.65 49.32 50.32 50.38 50.77 50.82 46.05 42.29 44.65 47.63 46.76 45.85 19.63 36.41 39.98 47.21 45.88 40.22 40.88 43.32 48.09 44.81 41.69 40.49 41.80 39.13 40.27 40.33 39.27 40.56 42.61 40.29 43.18 41.55 40.89 38.74 38.02
47.73 47.97 47.46 47.79 48.45 47.81 47.86 47.74 47.29 47.70 48.37 49.03 49.65 49.94 50.47 47.14 47.43 46.46 46.57 45.25 45.49 32.51 21.45 33.78 40.25 40.00 39.28 41.24 41.08 44.22 43.75 46.52 45.94 42.22 42.92 41.30 45.42 43.97 43.07 43.06 43.58 44.15 42.22 41.35 40.30 38.95 32.94
46.69 47.15 47.38 47.06 47.65 47.41 46.82 47.05 47.24 47.65 48.04 48.48 49.26 49.84 48.56 49.13 43.25 45.95 45.77 41.81 30.96 23.64 36.00 32.56 33.87 37.65 36.75 36.46 38.76 39.84 38.94 38.70 37.13 34.14 35.65 39.89 40.87 43.77 44.48 41.40 42.86 42.52 39.71 33.33 32.00 32.03 32.00
46.39 46.62 47.13 47.07 47.30 46.83 46.46 46.73 47.41 47.68 47.77 47.92 48.92 49.05 47.16 48.24 48.10 47.75 43.54 34.76 23.07 30.08 32.32 37.26 36.32 36.10 33.41 37.86 38.16 38.09 36.19 34.84 39.12 38.56 35.64 34.15 32.05 41.23 44.50 42.33 39.60 39.81 39.66 34.24 28.35 29.51 33.58
45.96 46.05 46.19 46.85 46.62 46.42 46.75 46.34 46.58 47.19 47.68 48.28 48.27 43.88 44.27 45.50 48.63 46.81 37.90 25.91 26.46 30.34 34.73 32.80 34.88 32.24 33.02 36.03 35.94 37.75 35.88 34.57 36.92 39.17 35.39 33.96 34.37 42.17 43.24 44.25 44.46 38.89 36.23 41.84 35.17 35.45 33.28
45.67 45.64 45.91 45.88 46.63 46.64 46.41 46.10 46.07 46.18 46.70 47.46 41.94 40.82 40.71 46.49 48.09 44.23 33.61 28.30 29.42 36.13 35.18 34.64 29.48 33.31 29.66 32.42 32.97 34.70 36.84 37.44 37.28 40.26 42.88 39.54 34.10 41.15 42.10 44.37 44.05 42.82 43.56 36.17 35.82 29.22 27.85
44.80 44.87 44.89 45.21 46.25 46.32 45.74 45.68 45.44 45.41 46.20 47.24 41.49 36.46 41.84 46.99 47.02 38.57 28.44 29.67 32.07 35.88 35.85 32.67 31.31 30.59 31.83 31.12 32.65 32.35 35.61 37.87 38.71 40.71 41.71 40.55 38.15 37.16 41.48 39.27 38.64 39.56 38.94 39.50 39.33 35.94 31.36
44.33 44.54 44.60 44.94 45.06 45.38 45.61 45.64 45.27 45.33 46.49 44.20 39.99 30.57 44.09 47.04 34.52 34.68 30.93 32.52 35.74 33.76 36.29 35.39 35.93 33.94 32.19 32.73 31.44 31.98 32.92 37.29 40.75 42.66 40.05 42.19 37.18 32.60 35.98 41.42 43.18 42.35 40.10 40.60 34.77 32.78 34.40
44.20 44.11 44.23 44.50 44.75 45.08 45.38 45.17 45.24 45.28 45.53 42.53 35.69 35.65 44.53 44.31 28.37 28.99 34.53 33.69 34.14 32.56 34.27 34.15 33.53 34.65 35.58 32.53 29.38 33.26 35.17 40.63 40.58 39.62 42.02 43.08 37.36 31.66 34.03 38.50 40.95 38.43 39.08 40.72 39.58 37.36 34.00
44.20 43.92 43.87 44.23 44.35 44.66 45.09 44.94 44.91 45.22 45.46 42.37 35.86 29.43 35.56 39.10 36.82 32.02 31.59 31.66 30.39 34.70 33.71 34.83 33.66 35.32 33.43 31.64 34.37 31.70 33.45 38.33 40.56 39.56 45.54 44.85 39.50 35.27 31.22 34.57 39.15 37.18 39.27 40.24 38.39 33.45 34.75
43.52 43.68 44.20 43.80 44.02 44.26 44.64 44.78 44.83 45.30 45.78 41.71 35.84 31.35 35.73 28.84 31.43 32.64 33.47 32.84 29.90 29.28 33.86 34.53 32.02 32.58 31.96 28.66 29.90 30.19 34.18 35.85 37.93 40.96 43.02 42.99 35.39 37.69 38.93 39.14 39.26 37.64 37.55 38.66 37.16 37.78 34.44
43.52 43.66 43.88 43.83 44.44 45.17 45.31 45.22 45.15 45.26 45.87 39.12 32.01 33.40 35.85 33.90 34.85 33.37 34.29 31.67 30.99 31.50 32.53 30.61 30.85 33.26 33.42 29.99 31.29 29.65 32.47 32.78 32.43 37.14 36.42 38.25 36.01 36.95 34.13 37.99 37.35 34.76 37.80 36.62 38.27 38.50 38.42
43.14 43.98 44.35 44.64 44.94 44.59 45.26 45.68 45.75 45.64 45.09 37.59 38.96 39.15 37.12 33.34 32.17 32.02 31.10 32.19 32.20 34.47 35.43 35.92 34.57 32.75 31.07 33.06 36.26 36.90 37.38 36.92 36.16 33.49 32.73 34.12 36.02 33.06 29.83 34.85 34.22 30.73 36.13 36.64 37.94 39.23 39.14
43.92 43.92 44.18 44.68 45.16 45.25 45.82 46.03 46.24 45.99 45.40 39.87 40.25 39.36 33.31 28.05 32.09 31.28 33.47 33.95 33.18 34.29 32.69 35.49 36.50 33.61 36.81 40.99 40.14 38.76 36.45 35.41 35.52 35.55 37.17 33.14 34.66 33.13 30.18 31.39 23.68 35.36 40.83 40.48 40.21 40.77 40.89
44.27 44.12 44.33 44.47 45.47 45.98 45.99 46.06 46.40 46.56 46.09 41.61 41.23 39.48 35.52 28.80 31.79 33.54 33.75 33.86 35.37 36.47 34.42 34.75 37.01 39.26 41.11 37.76 32.97 30.61 30.21 32.35 33.41 35.29 35.96 37.99 35.60 31.51 28.98 28.58 31.99 35.42 38.06 38.66 38.48 37.16 41.76
44.01 44.12 44.67 45.47 45.58 45.82 45.78 45.77 45.96 46.40 46.47 43.16 41.30 42.70 38.81 32.30 30.20 34.87 34.48 35.43 32.61 33.09 33.91 35.19 39.77 41.79 40.28 34.71 32.17 25.91 24.88 28.66 29.03 33.45 38.72 37.88 38.49 34.60 29.96 26.41 23.21 33.37 39.04 44.11 42.48 32.77 43.20
44.64 45.18 45.52 45.80 45.84 45.84 45.84 46.10 45.91 46.70 46.49 43.62 41.27 43.36 39.15 33.09 36.93 36.68 33.79 34.43 37.34 35.09 32.93 34.46 35.73 35.82 39.23 32.92 28.49 27.05 27.38 31.91 27.07 28.41 28.77 32.37 32.92 30.54 30.18 28.79 31.69 38.17 40.77 43.74 31.21 33.95 43.61
45.43 45.60 45.67 45.64 45.62 45.64 45.73 45.91 45.84 46.44 46.15 43.90 41.63 44.04 39.51 33.12 37.55 40.20 40.48 37.59 37.36 36.29 31.74 35.11 34.62 34.10 34.42 30.42 29.34 29.46 28.68 31.19 30.47 33.52 32.16 30.13 29.35 29.80 32.06 28.33 25.57 40.30 42.69 37.25 40.65 44.15 44.37
45.08 45.30 45.55 45.78 45.85 46.03 45.92 45.89 45.80 45.96 46.01 45.54 39.97 44.30 43.73 37.59 38.02 42.86 43.16 44.40 42.71 41.22 37.98 37.79 35.85 34.09 34.94 31.70 31.74 32.17 29.28 29.94 31.21 27.45 35.83 31.65 34.72 33.06 34.08 33.80 39.89 43.58 42.87 42.71 43.33 42.48 44.08
MSLP
1022.81 1022.71 1022.45 1022.38 1022.53 1022.61 1022.23 1022.20 1022.17 1022.01 1021.65 1021.47 1021.14 1020.68 1020.16 1019.79 1019.40 1019.08 1018.66 1018.58 1018.37 1018.10 1018.01 1017.21 1016.58 1016.20 1015.77 1014.80 1012.39 1010.56 1010.12 1010.11 1009.80 1010.35 1010.46 1010.45 1010.08 1009.90 1009.83 1009.66 1009.92 1010.13 1009.53 1009.53 1009.18 1009.28 1009.56
1022.73 1022.54 1022.38 1022.33 1022.36 1022.30 1022.20 1022.15 1022.02 1021.84 1021.58 1021.34 1021.07 1020.45 1019.85 1019.76 1019.46 1018.84 1018.24 1018.03 1017.92 1017.45 1017.30 1016.93 1016.60 1015.90 1016.13 1014.61 1010.69 1010.67 1010.39 1010.44 1010.09 1010.20 1010.24 1010.47 1009.67 1009.34 1009.43 1009.28 1009.04 1009.00 1009.19 1009.11 1008.89 1008.72 1009.06
1022.55 1022.62 1022.34 1022.29 1022.28 1022.19 1022.22 1021.98 1021.78 1021.61 1021.29 1021.16 1020.79 1020.32 1019.89 1019.56 1019.37 1018.70 1018.15 1017.52 1017.35 1016.88 1016.65 1016.32 1016.17 1015.75 1015.38 1013.16 1010.72 1010.65 1010.51 1010.35 1010.05 1010.01 1009.91 1010.05 1009.62 1009.33 1009.11 1009.20 1008.72 1008.70 1009.08 1008.89 1008.57 1008.44 1008.74
1022.43 1022.60 1022.20 1022.35 1022.15 1022.05 1021.87 1021.67 1021.53 1021.30 1020.96 1020.86 1020.39 1020.06 1019.78 1019.27 1019.06 1018.55 1017.95 1017.10 1016.35 1016.18 1015.71 1015.27 1015.49 1015.12 1013.93 1011.35 1011.03 1010.43 1010.32 1009.96 1009.97 1009.94 1009.87 1009.67 1009.56 1009.45 1009.18 1009.09 1008.91 1008.81 1009.31 1008.89 1008.29 1008.37 1008.89
1021.97 1022.29 1022.26 1022.09 1021.85 1021.83 1021.80 1021.61 1021.15 1020.95 1020.72 1020.70 1020.21 1020.00 1019.70 1019.07 1018.73 1018.42 1017.66 1016.69 1015.63 1015.37 1014.83 1014.69 1015.12 1014.27 1013.13 1010.92 1010.89 1009.22 1009.48 1009.39 1009.35 1009.50 1009.61 1009.60 1009.51 1009.36 1009.33 1009.12 1009.17 1008.98 1008.63 1008.72 1008.31 1008.14 1008.53
1021.76 1021.95 1021.58 1021.76 1021.76 1021.70 1021.56 1021.33 1021.06 1020.66 1020.55 1020.38 1019.97 1019.68 1019.36 1018.88 1018.51 1018.13 1017.38 1015.94 1014.95 1014.92 1014.87 1014.72 1014.35 1013.85 1011.83 1010.56 1009.70 1009.14 1008.94 1009.25 1008.97 1009.11 1009.63 1009.56 1009.51 1009.24 1009.24 1008.85 1007.88 1008.03 1008.52 1008.57 1008.08 1008.22 1008.15
1021.50 1021.58 1021.53 1021.28 1021.50 1021.56 1021.19 1020.96 1020.85 1020.48 1020.45 1020.22 1019.94 1019.48 1019.14 1018.77 1018.45 1017.97 1017.32 1016.15 1015.52 1015.19 1015.02 1014.19 1013.62 1012.59 1010.77 1010.30 1009.83 1008.85 1008.78 1008.95 1008.64 1008.89 1009.05 1009.18 1009.23 1008.25 1008.09 1008.15 1008.23 1007.82 1008.10 1008.30 1008.25 1008.11 1007.85
1021.37 1021.26 1021.07 1020.98 1021.02 1021.10 1020.98 1020.81 1020.58 1020.33 1020.17 1020.00 1019.79 1019.31 1019.11 1018.65 1018.39 1018.09 1017.73 1017.28 1017.51 1017.88 1015.26 1013.64 1012.49 1011.95 1011.01 1010.87 1011.08 1009.06 1008.61 1008.49 1008.42 1008.35 1008.64 1009.20 1008.04 1007.77 1008.20 1008.34 1008.25 1008.10 1007.82 1008.12 1008.03 1007.85 1007.77
1020.80 1020.81 1020.73 1020.64 1020.65 1020.52 1020.70 1020.45 1020.33 1020.19 1019.89 1019.82 1019.62 1019.15 1018.96 1018.58 1018.30 1018.34 1018.28 1017.88 1017.47 1017.20 1015.84 1011.65 1010.69 1010.24 1009.87 1010.58 1009.61 1008.41 1008.22 1007.74 1007.71 1008.02 1008.02 1007.68 1007.22 1007.23 1007.71 1007.96 1008.10 1008.00 1007.66 1007.85 1008.03 1008.02 1007.33
1020.24 1020.19 1020.24 1020.31 1020.24 1020.24 1020.27 1020.26 1020.14 1020.02 1019.78 1019.47 1019.35 1019.10 1018.70 1018.56 1018.57 1018.66 1018.10 1017.75 1017.40 1017.18 1015.48 1011.28 1009.94 1008.87 1008.51 1008.76 1008.43 1006.96 1007.07 1007.25 1007.31 1007.18 1007.72 1007.66 1007.14 1007.08 1007.09 1007.12 1007.58 1007.56 1007.53 1007.63 1008.08 1008.29 1007.45
1019.86 1019.71 1019.79 1019.81 1019.74 1019.85 1019.94 1019.92 1019.81 1019.77 1019.55 1019.24 1019.22 1018.77 1018.61 1018.51 1018.67 1018.62 1018.14 1017.60 1017.25 1017.08 1014.86 1010.08 1008.79 1007.57 1007.90 1008.11 1007.20 1006.14 1006.19 1006.75 1006.42 1006.77 1007.22 1006.74 1006.48 1006.66 1006.80 1006.40 1007.11 1006.77 1007.13 1007.54 1007.91 1008.13 1007.92
1019.31 1019.27 1019.22 1019.25 1019.30 1019.38 1019.57 1019.58 1019.47 1019.42 1019.24 1019.00 1018.97 1018.61 1018.38 1018.47 1018.50 1018.23 1017.96 1017.62 1017.32 1016.61 1013.13 1009.80 1008.46 1008.04 1008.07 1007.63 1006.88 1006.31 1006.19 1006.27 1006.14 1006.52 1006.85 1006.33 1006.15 1006.10 1005.90 1006.17 1006.44 1006.86 1007.26 1007.68 1008.08 1008.24 1007.52
1018.72 1018.65 1018.67 1018.71 1018.74 1018.89 1019.03 1019.10 1019.03 1019.00 1018.87 1018.64 1018.64 1018.37 1018.29 1018.20 1018.17 1018.00 1017.91 1017.70 1017.27 1015.46 1011.90 1010.64 1009.41 1008.50 1007.70 1006.97 1006.61 1006.39 1006.47 1006.28 1005.86 1006.31 1006.53 1006.23 1005.87 1005.55 1005.54 1006.04 1006.48 1006.63 1006.99 1007.59 1008.03 1007.88 1006.62
1018.12 1018.08 1018.10 1018.02 1018.20 1018.27 1018.47 1018.51 1018.50 1018.60 1018.55 1018.37 1018.21 1018.04 1017.90 1017.78 1017.88 1017.93 1018.05 1017.97 1016.43 1013.98 1012.59 1011.15 1010.13 1008.91 1008.01 1007.09 1006.54 1006.54 1006.75 1006.54 1006.10 1005.88 1005.92 1005.78 1005.67 1005.12 1004.87 1004.99 1005.36 1005.88 1006.28 1006.65 1006.96 1006.95 1006.52
1017.49 1017.51 1017.44 1017.41 1017.55 1017.65 1017.82 1017.85 1017.91 1018.17 1018.18 1018.01 1017.91 1017.97 1017.81 1017.28 1017.41 1017.81 1018.15 1017.50 1015.42 1014.07 1013.15 1012.26 1010.60 1009.51 1008.66 1007.90 1007.37 1006.73 1006.79 1006.71 1006.17 1005.68 1005.40 1005.38 1004.94 1004.41 1004.12 1004.35 1004.62 1005.78 1005.99 1006.22 1006.65 1007.10 1006.77
1016.79 1016.77 1016.71 1016.79 1016.90 1016.97 1017.07 1017.26 1017.52 1017.71 1017.77 1017.70 1018.08 1017.94 1017.27 1016.61 1017.00 1017.59 1017.57 1016.31 1015.27 1014.09 1013.53 1012.95 1012.22 1011.20 1010.27 1009.18 1008.11 1007.37 1007.09 1007.13 1006.41 1005.47 1005.10 1004.95 1004.84 1004.28 1004.11 1004.32 1004.59 1004.57 1005.15 1006.11 1006.66 1006.58 1006.34
1016.13 1016.07 1016.01 1016.04 1016.11 1016.21 1016.45 1016.77 1017.04 1017.24 1017.31 1017.48 1017.87 1017.39 1016.01 1015.95 1016.82 1017.16 1016.41 1015.81 1015.13 1014.12 1013.97 1013.47 1012.86 1012.24 1011.52 1010.63 1009.49 1008.44 1007.77 1007.26 1006.81 1005.88 1005.03 1005.13 1005.00 1004.97 1004.40 1004.14 1004.11 1004.83 1004.88 1005.31 1005.71 1006.13 1005.74
1015.20 1015.21 1015.22 1015.28 1015.38 1015.54 1015.80 1016.09 1016.48 1016.72 1016.90 1017.32 1017.31 1016.81 1016.01 1015.92 1016.52 1016.21 1015.72 1015.47 1014.84 1014.35 1013.99 1013.64 1013.32 1012.87 1012.32 1011.47 1010.34 1009.48 1008.69 1007.99 1007.49 1006.62 1005.82 1005.57 1005.46 1005.26 1004.76 1004.32 1004.29 1004.46 1004.71 1005.09 1005.44 1006.12 1005.94
1014.25 1014.22 1014.28 1014.42 1014.55 1014.75 1015.02 1015.39 1015.79 1016.15 1016.49 1016.99 1016.66 1016.07 1015.88 1015.89 1015.31 1015.38 1015.43 1015.07 1014.42 1014.13 1013.88 1013.68 1013.59 1013.34 1012.71 1012.05 1011.34 1010.24 1009.43 1008.38 1008.02 1007.26 1006.95 1006.41 1006.15 1006.01 1005.62 1005.23 1005.02 1005.09 1005.28 1005.15 1005.45 1005.62 1005.29
1012.95 1013.13 1013.31 1013.42 1013.61 1013.86 1014.13 1014.54 1014.99 1015.47 1015.86 1016.71 1016.31 1015.66 1015.14 1015.08 1014.89 1014.57 1014.61 1014.55 1014.18 1013.84 1013.77 1013.87 1013.79 1013.47 1012.95 1012.35 1011.71 1011.03 1010.27 1009.12 1008.59 1008.07 1007.24 1006.69 1006.77 1006.67 1006.31 1006.28 1006.42 1006.13 1005.84 1005.76 1005.66 1005.62 1005.08
1011.99 1012.08 1012.18 1012.39 1012.67 1012.88 1013.20 1013.60 1014.09 1014.67 1015.14 1016.13 1015.27 1014.35 1014.06 1013.87 1013.98 1014.04 1014.20 1013.73 1013.68 1013.52 1013.53 1013.45 1013.63 1013.48 1013.15 1012.75 1012.20 1011.53 1010.95 1010.24 1009.31 1008.96 1008.00 1007.73 1007.80 1007.66 1007.34 1007.14 1006.97 1006.66 1006.20 1005.83 1005.64 1005.21 1005.03
1010.71 1010.80 1011.00 1011.25 1011.48 1011.68 1011.95 1012.42 1013.04 1013.69 1014.34 1014.99 1014.23 1013.88 1013.88 1013.35 1013.32 1013.31 1013.23 1012.57 1012.47 1012.79 1012.79 1013.01 1013.02 1012.87 1012.87 1012.38 1011.92 1011.70 1011.56 1011.29 1010.65 1009.96 1009.56 1009.11 1008.81 1008.53 1008.17 1007.56 1007.32 1006.84 1006.30 1005.79 1005.41 1004.90 1004.64
1009.51 1009.53 1009.64 1009.76 1009.95 1010.20 1010.48 1010.95 1011.63 1012.44 1013.22 1013.29 1013.55 1013.43 1013.20 1012.43 1012.49 1012.51 1011.72 1011.55 1011.61 1012.07 1012.10 1011.98 1012.34 1012.76 1012.57 1012.33 1012.16 1011.73 1011.73 1011.75 1011.49 1011.54 1010.94 1010.29 1009.58 1009.25 1008.70 1008.18 1007.46 1006.64 1005.83 1005.37 1004.99 1004.78 1004.44
1008.06 1008.08 1008.12 1008.18 1008.29 1008.44 1008.71 1009.19 1009.71 1010.64 1011.34 1012.33 1012.46 1012.58 1012.80 1011.79 1011.67 1010.94 1011.05 1011.38 1011.10 1011.14 1011.34 1011.83 1012.04 1012.30 1012.24 1012.13 1011.79 1011.23 1011.22 1011.26 1011.22 1011.13 1011.10 1010.74 1010.20 1009.80 1009.28 1008.83 1007.69 1005.90 1005.34 1004.98 1004.61 1004.25 1004.28
1006.32 1006.29 1006.28 1006.32 1006.44 1006.70 1007.04 1007.47 1007.97 1008.65 1009.61 1010.81 1011.59 1011.55 1011.28 1010.96 1010.78 1010.73 1010.41 1010.36 1010.70 1010.88 1011.22 1011.56 1011.61 1011.75 1012.12 1012.65 1012.22 1011.34 1010.90 1010.65 1010.11 1010.09 1010.39 1010.65 1010.53 1010.25 1009.83 1008.96 1007.59 1005.83 1005.03 1005.06 1004.65 1004.53 1004.48
1004.49 1004.51 1004.56 1004.65 1004.80 1005.06 1005.40 1005.77 1006.13 1006.50 1007.48 1009.31 1010.12 1010.88 1010.71 1010.17 1008.87 1009.69 1009.83 1009.70 1010.02 1010.63 1011.37 1011.21 1011.69 1012.46 1012.10 1012.42 1012.22 1011.47 1010.55 1010.16 1009.92 1009.69 1009.69 1010.15 1010.37 1010.30 1010.21 1008.99 1007.49 1005.96 1005.11 1004.90 1004.69 1004.66 1004.39
1002.71 1002.71 1002.75 1002.89 1003.13 1003.42 1003.80 1004.20 1004.57 1004.98 1006.10 1007.72 1008.56 1009.82 1010.32 1009.50 1008.40 1008.49 1008.33 1008.90 1009.43 1009.87 1010.58 1010.82 1011.44 1011.93 1012.02 1012.13 1011.96 1011.32 1010.54 1009.92 1009.59 1009.31 1009.73 1009.91 1010.07 1009.93 1009.60 1008.85 1007.64 1006.31 1005.79 1005.70 1005.66 1005.27 1004.48
1000.95 1000.92 1000.97 1001.12 1001.40 1001.78 1002.25 1002.81 1003.41 1004.13 1005.21 1006.51 1007.33 1008.14 1008.94 1009.03 1008.28 1007.39 1007.41 1007.79 1008.58 1009.08 1009.49 1010.11 1010.98 1011.31 1011.53 1011.58 1011.46 1011.04 1010.58 1009.82 1009.41 1009.06 1009.02 1009.10 1009.41 1009.43 1009.11 1008.72 1007.61 1006.17 1006.06 1006.35 1006.61 1005.51 1005.28
999.36 999.37 999.45 999.64 999.87 1000.19 1000.70 1001.48 1002.24 1003.21 1004.24 1005.47 1006.26 1007.01 1008.25 1008.66 1008.23 1007.41 1007.14 1006.83 1006.89 1007.55 1008.47 1009.23 1009.04 1009.43 1010.03 1010.60 1010.78 1010.39 1010.30 1010.00 1009.22 1009.00 1008.73 1008.57 1007.99 1008.02 1008.15 1007.51 1006.81 1006.83 1007.19 1007.56 1007.41 1006.88 1006.34
Wind_Speed
9 10 9 10 12 12 12 12 13 12 12 13 14 14 15 16 16 16 15 15 16 18 20 19 15 14 8 4 12 6 10 5 5 3 4 5 6 5 7 7 8 6 6 6 10 7 6
11 11 13 11 11 12 12 12 13 13 13 13 13 14 15 17 19 18 16 17 18 18 19 18 15 5 3 7 3 0 7 3 2 4 3 5 7 6 4 5 8 7 8 6 6 8 3
11 12 11 12 13 11 11 11 12 13 13 13 13 13 14 16 18 18 19 18 20 20 20 20 13 2 3 19 4 4 7 2 2 3 4 4 3 3 5 3 4 3 4 5 6 3 5
11 12 12 13 12 13 13 11 12 14 14 15 16 15 15 15 17 18 19 20 24 22 23 16 11 4 8 7 5 9 5 7 9 4 2 3 3 3 3 1 3 4 1 5 1 4 1
10 12 14 13 14 10 13 14 13 13 14 15 15 14 15 15 17 19 19 22 26 21 13 8 7 5 11 7 6 10 12 8 7 5 4 3 2 4 2 4 2 1 6 6 4 4 4
13 13 13 12 14 14 14 16 15 13 13 15 15 14 15 16 16 17 19 26 19 6 4 6 5 1 6 3 6 2 6 5 3 9 4 5 2 4 4 10 12 8 5 5 7 5 2
14 13 14 12 15 16 15 16 14 12 14 15 16 16 15 15 15 16 14 6 5 2 4 6 5 7 3 6 9 3 4 6 2 4 11 5 7 14 15 15 5 7 4 4 3 4 3
17 13 14 14 14 15 15 15 15 12 14 15 16 16 16 15 13 14 4 4 6 5 14 16 22 18 21 4 7 9 6 6 5 9 8 4 15 13 8 8 10 6 5 7 8 6 7
14 15 16 15 14 15 15 14 13 13 15 15 15 16 15 14 11 4 3 2 7 8 7 10 8 9 11 18 19 20 6 3 6 8 15 16 4 15 14 8 11 12 11 7 8 5 4
16 16 16 14 14 17 13 17 15 13 14 14 14 14 13 13 3 4 3 5 8 2 6 8 4 7 8 10 9 19 14 9 6 14 9 12 8 11 10 16 12 14 10 7 5 3 5
17 15 15 16 17 13 13 15 12 14 15 15 13 13 12 8 3 2 4 9 8 3 6 1 2 2 7 8 6 3 15 13 11 8 7 8 7 11 12 10 14 10 8 10 7 6 4
17 16 16 16 16 12 14 13 14 15 14 15 13 13 11 1 1 3 5 8 1 2 9 7 2 2 5 9 5 4 5 3 5 5 1 8 2 11 13 5 17 7 3 4 3 3 7
19 17 18 18 16 15 13 14 14 15 13 15 14 14 7 2 1 2 3 4 1 5 6 7 7 7 9 5 4 5 5 13 7 10 12 5 8 3 4 8 6 5 6 3 5 5 7
19 18 20 19 16 15 14 15 13 14 13 15 14 12 4 3 3 1 2 1 9 2 6 5 8 12 2 2 4 6 5 9 9 1 7 11 6 12 6 6 7 13 12 5 7 6 4
21 20 20 19 17 17 16 13 12 13 13 14 12 2 2 3 6 3 2 4 3 6 3 8 13 5 6 7 5 2 6 2 7 8 6 8 10 4 6 5 7 6 9 5 3 2 1
21 22 21 19 19 19 15 12 12 12 14 14 0 2 4 6 7 4 5 8 5 3 4 4 2 6 6 9 10 8 1 6 6 8 3 5 3 4 4 4 3 8 10 6 1 6 8
23 22 21 21 19 18 15 14 12 13 14 13 1 3 5 10 6 4 7 6 4 12 6 2 2 4 5 6 6 8 8 2 11 9 4 3 2 2 4 5 12 6 8 1 3 3 4
23 22 22 22 21 19 17 15 14 14 13 6 3 4 3 8 5 3 4 5 7 4 2 3 2 5 4 5 5 5 6 5 11 11 3 2 2 3 5 2 3 2 5 8 4 5 1
24 23 22 22 22 20 20 17 15 14 13 1 3 3 5 4 7 8 3 5 8 6 3 1 2 0 2 2 4 2 5 5 10 10 4 4 2 3 2 2 4 2 2 3 2 3 7
23 23 25 24 23 23 22 18 16 16 15 6 3 3 6 7 7 12 9 6 7 5 7 1 3 3 1 2 0 4 6 5 10 9 8 2 3 2 2 3 2 1 6 3 3 3 4
26 26 24 23 23 22 21 21 18 18 16 7 5 4 4 4 10 16 11 8 13 8 6 7 5 9 5 3 3 4 3 6 6 11 6 4 3 1 2 2 3 2 5 4 5 6 5
25 24 23 23 25 25 24 23 21 20 19 8 3 4 4 4 6 15 11 13 18 14 11 7 8 4 11 11 11 5 1 2 4 7 8 8 3 2 2 2 2 4 8 3 4 2 6
27 25 26 27 27 29 28 27 26 24 22 7 5 3 3 8 9 7 14 16 18 14 9 12 12 10 11 12 10 12 9 8 9 6 5 5 1 3 4 1 4 3 7 4 2 2 3
29 30 30 29 29 30 28 27 30 29 27 8 4 4 6 7 9 14 13 15 15 20 13 7 10 14 2 6 10 4 5 9 10 9 9 5 4 1 1 2 5 1 3 6 3 5 8
30 31 31 30 27 27 27 26 27 32 32 10 8 5 6 7 11 12 17 15 13 11 16 15 11 8 4 7 4 4 2 1 6 10 10 12 3 2 2 3 5 7 4 5 5 5 6
28 29 30 28 27 27 26 25 27 30 36 15 11 8 5 5 14 15 9 13 9 6 4 8 7 7 3 2 3 3 3 3 2 2 1 9 6 2 3 3 4 3 1 2 3 3 3
28 27 27 26 26 26 25 24 23 26 32 15 7 15 8 5 5 13 12 10 8 10 3 4 6 6 9 5 5 4 3 2 2 4 4 5 3 8 4 4 5 8 7 2 3 1 4
26 26 26 26 26 25 24 23 23 24 28 19 9 16 12 3 4 9 14 11 7 10 6 6 4 2 5 6 4 3 3 4 3 3 6 7 7 5 6 3 8 3 2 2 6 6 6
24 23 22 20 21 22 25 22 24 24 27 26 5 12 12 5 2 7 5 14 21 18 9 11 5 5 6 4 4 3 3 1 5 3 1 5 6 5 7 5 1 4 5 7 8 11 11
Wind_Direction
335 330 335 328 324 323 331 330 330 325 319 317 319 323 329 329 327 325 325 319 316 314 314 318 320 350 349 355 252 338 24 42 107 147 234 192 174 157 195 178 143 212 249 189 243 251 244
325 333 333 333 329 335 332 325 322 317 315 316 313 320 326 323 324 323 322 320 314 309 303 306 306 6 40 281 258 199 14 339 216 174 219 214 210 195 184 194 175 191 233 252 273 259 206
322 319 321 322 320 318 323 323 321 320 319 319 319 319 314 317 316 316 318 317 307 301 295 293 281 224 173 246 277 302 323 244 192 203 198 232 231 177 150 196 196 146 264 295 241 250 213
309 308 316 306 303 312 312 305 312 314 318 316 319 315 314 314 311 311 314 313 303 304 296 282 236 199 243 255 282 268 233 251 237 225 210 254 218 213 222 198 56 143 78 251 195 161 317
300 304 301 300 313 312 312 322 321 327 331 327 324 320 314 315 316 314 312 305 300 307 304 167 166 153 267 289 254 256 203 228 189 170 210 271 191 192 173 172 178 116 220 220 293 211 121
296 294 297 305 313 312 309 310 312 321 326 328 326 322 319 321 321 317 316 304 299 293 95 159 137 195 242 252 288 245 170 232 189 144 172 177 171 197 177 187 210 181 184 225 233 161 189
292 287 296 303 302 302 304 306 311 328 333 330 327 324 324 324 325 324 323 329 6 336 3 263 248 295 340 343 304 254 182 168 136 146 189 196 194 210 196 208 198 157 172 220 240 237 261
290 284 291 287 285 290 295 298 316 325 329 327 326 325 326 326 329 322 338 25 70 300 294 256 247 242 253 254 305 265 209 185 175 197 163 156 224 207 180 200 205 196 163 240 286 242 223
283 295 289 288 294 295 296 308 310 317 321 320 324 324 324 324 330 3 330 285 333 341 275 283 226 241 230 197 226 248 193 203 187 177 193 205 224 175 184 192 196 222 211 214 246 335 247
278 276 284 283 286 291 293 301 298 308 312 313 317 320 324 324 59 317 317 327 325 318 303 283 229 253 181 159 236 233 219 190 207 201 184 226 225 184 200 210 187 230 203 218 228 292 264
277 274 282 281 279 275 295 290 302 308 306 307 312 315 321 329 296 302 298 314 315 208 323 24 175 141 157 193 305 201 201 217 201 176 169 218 195 185 202 215 187 235 167 199 221 226 282
282 276 275 278 279 271 284 289 300 297 300 301 305 307 324 10 220 263 312 307 270 205 252 321 11 350 152 225 264 19 178 232 193 148 241 220 187 193 202 174 193 158 146 88 66 164 246
280 277 275 274 275 270 278 283 290 291 296 297 302 299 316 231 288 157 327 346 168 218 331 334 333 330 293 253 228 183 185 194 176 179 198 201 213 194 155 179 161 167 127 187 209 203 251
276 277 273 270 268 270 272 279 283 291 296 301 306 301 249 199 177 222 36 18 224 221 285 344 323 308 250 342 252 157 140 198 241 124 173 197 214 193 189 174 180 197 191 187 211 210 230
275 274 274 271 267 272 265 269 279 289 293 300 315 295 254 227 180 158 130 212 253 212 341 343 322 351 348 349 341 247 160 218 233 205 184 194 232 175 187 163 159 169 194 186 97 61 33
272 271 271 267 266 259 260 270 271 283 288 293 235 286 241 182 157 137 215 228 242 297 39 341 297 11 348 334 5 359 156 9 332 224 214 200 199 193 158 122 216 189 156 175 169 228 241
275 271 270 272 267 265 256 260 266 275 278 290 231 252 258 150 142 187 228 209 204 287 285 285 336 319 338 343 330 345 358 111 11 322 174 168 127 190 147 179 179 174 206 150 170 166 231
269 269 270 266 265 264 262 252 256 261 267 289 250 233 175 150 195 182 216 201 173 246 239 283 247 243 246 327 323 335 326 349 357 334 55 324 117 202 223 120 104 122 199 212 224 189 157
272 269 268 264 263 259 255 247 246 250 246 236 225 238 176 209 223 216 207 187 208 189 196 208 268 73 324 283 303 332 323 305 -0 352 13 343 49 123 109 333 48 91 334 218 129 123 201
267 263 263 261 260 258 255 242 240 241 242 221 221 243 198 203 239 224 199 207 212 200 214 166 288 274 275 285 297 305 318 317 345 333 342 334 76 54 171 85 57 352 317 308 222 213 228
268 264 259 263 260 254 251 246 238 235 231 213 213 222 223 201 217 222 233 197 203 193 201 204 238 233 231 286 324 234 263 321 323 1 14 20 121 220 301 235 168 236 265 279 229 222 210
274 266 259 253 252 250 247 240 234 227 224 222 228 185 199 223 242 197 203 205 214 203 179 192 212 190 225 221 218 255 57 5 293 349 10 342 162 133 285 284 180 272 289 283 211 228 231
270 267 263 260 256 253 248 238 227 216 211 216 209 210 254 230 219 225 210 211 208 195 216 216 203 225 242 251 244 256 251 248 258 291 313 299 169 158 219 235 324 265 202 196 170 157 177
264 263 262 258 254 250 246 239 226 212 207 208 199 165 206 233 222 215 209 206 203 199 196 209 219 230 195 350 320 269 245 229 230 222 204 268 331 23 97 286 240 320 148 227 256 223 198
264 262 262 259 253 247 242 240 229 216 209 199 199 230 182 235 220 233 220 198 205 202 210 209 210 229 188 247 271 290 296 282 226 217 197 204 191 176 230 213 315 301 182 195 197 287 21
266 262 258 252 248 244 240 241 239 233 201 199 205 203 251 206 218 207 212 197 193 187 185 228 235 194 234 123 227 233 225 214 170 171 227 168 205 228 163 211 233 273 345 339 163 295 246
261 256 251 248 245 242 239 237 235 207 196 193 203 200 196 257 191 186 204 202 198 170 210 147 184 221 188 185 217 228 243 222 197 182 155 141 149 223 188 232 277 251 284 256 218 330 335
259 256 251 245 242 238 231 227 216 203 200 197 196 185 195 204 230 207 191 186 155 184 179 156 134 156 166 187 203 189 194 232 200 164 175 171 160 194 196 201 261 153 92 340 336 303 294
264 259 255 251 244 235 225 221 209 206 205 196 202 176 188 202 290 221 255 201 189 185 170 170 200 156 154 153 203 193 194 197 181 208 128 202 194 180 197 210 318 60 74 8 352 320 328